Terminal Aerodrome Forecast
Issued by NWS Dodge City, KS

Home | Current Version | Previous Version | Graphics & Text | Print | Product List | Glossary Off
Versions: 1 2 3 4 5 6 7 8 9 10 11 12 13 14 15 16 17 18 19 20 21 22 23 24 25 26 27 28 29 30 31 32 33 34 35 36 37 38 39 40 41

000
FTUS43 KDDC 271859 AAA
TAFDDC
TAF AMD
KDDC 271859Z 2719/2818 19015G23KT P6SM SKC
     FM272100 19012KT P6SM BKN050
      TEMPO 2722/2802 P6SM -TSRA BKN050CB
     FM280900 36007KT P6SM OVC050=

USA.gov is the U.S. government's official web portal to all federal, state and local government web resources and services.